Regional Weather Roundup
Issued by NWS

Home | Current Version | Previous Version | Graphics & Text | Print | Product List | Glossary On
Versions: 1 2 3 4 5 6 7 8 9 10 11 12 13 14 15 16 17 18 19 20 21 22 23 24 25 26 27 28 29 30 31 32 33 34 35 36 37 38 39 40 41 42 43 44 45 46 47 48 49 50
000
ASUS43 KLOT 211903
RWRIL

ILLINOIS REGIONAL WEATHER ROUNDUP
NATIONAL WEATHER SERVICE CHICAGO/ROMEOVILLE IL
100 PM CST TUE NOV 21 2017

NOTE: "FAIR" INDICATES FEW OR NO CLOUDS BELOW 12,000 FEET WITH NO
SIGNIFICANT WEATHER AND/OR OBSTRUCTIONS TO VISIBILITY.

* THESE STATIONS ARE NOT UNDER NWS QUALITY CONTROL. THEY ALSO MAY NOT
  REPORT WEATHER SUCH AS PRECIPITATION OR FOG.

ILZ001-002-007-009-015-016-024-212000-
NORTHWEST ILLINOIS

CITY           SKY/WX    TMP DP  RH WIND       PRES   REMARKS
MOLINE         CLOUDY    35  18  49 NW21G30   29.99R WCI  24
STERLING*      CLOUDY    35  19  52 MISG        N/A
SAVANNA*       CLOUDY    34  19  54 NW21      29.97R WCI  22
$$

ILZ003-004-008-010-011-017-018-212000-
NORTH CENTRAL ILLINOIS

CITY           SKY/WX    TMP DP  RH WIND       PRES   REMARKS
ROCKFORD       CLOUDY    35  19  52 NW22G29   29.92R WCI  23
FREEPORT*      CLOUDY    33  18  54 NW21G29   29.94R WCI  21
ROCHELLE*      CLOUDY    34  21  59 NW18G26   29.91R WCI  23
DE KALB*       CLOUDY    35  22  59 NW24      29.88R WCI  22
PERU*          CLOUDY    35  21  58 NW22      29.93R WCI  23
$$

ILZ005-006-012>014-019>023-212000-
NORTHEAST ILLINOIS

CITY           SKY/WX    TMP DP  RH WIND       PRES   REMARKS
CHICAGO-OHARE  CLOUDY    40  18  41 W17       29.84R
CHICAGO-MIDWAY NOT AVBL
AURORA         CLOUDY    36  25  64 W17       29.89R WCI  26
LANSING*       CLOUDY    40  27  58 W12G22    29.87R
JOLIET*        CLOUDY    39  25  57 W13G18    29.90R WCI  32
WAUKEGAN       PTSUNNY   39  20  46 NW13G23   29.84R WCI  31
DUPAGE AIRPORT CLOUDY    36  20  52 NW20G29   29.86R WCI  25
KANKAKEE*      CLOUDY    40  31  70 W16       29.91R
WHEELING       CLOUDY    41  19  41 NW15      29.85R
MORRIS*        CLOUDY    37  25  61 NW17G23   29.90R WCI  28
ROMEOVILLE*    CLOUDY    37  24  61 NW18G26   29.88R WCI  26
NORTHERLY ISL    N/A     42  23  47 W12         N/A
$$

LMZ740>746-212000-
SOUTHERN LAKE MICHIGAN

STATION/POSITION SKY/WX   TEMP    WIND        PRES    VSBY  WAVE
                          AIR SEA DIR/SP/G                  HT/PER
                          (F)     (DEG/KT/KT) (MB)    (MI)  (FT/S)
SOUTHERN BUOY              43 47  340/ 19/ 21 1008.6          5/ 6
HARRISON CRIB              42     310/ 25/ 26   N/A
BURNHAM HARBOR             41     270/ 11/ 16   N/A
CALUMET HARBOR             41     260/ 10/ 17 1009.6R
BURNS HARBOR               42     270/ 12/ 15 1010.8R
MICHIGAN CITY              42     240/ 18/ 20   N/A
$$

ILZ025>027-034>036-040-047-049-050-058-095>099-212000-
WEST-CENTRAL ILLINOIS

CITY           SKY/WX    TMP DP  RH WIND       PRES   REMARKS
QUINCY         CLOUDY    41  25  53 NW13      30.01R
GALESBURG*     CLOUDY    38  24  58 NW18      29.98R WCI  28
MACOMB*        CLOUDY    41  25  53 NW20      30.01R
JACKSONVILLE*  CLOUDY    44  23  42 NW20G25   29.98R
PITTSFIELD*    CLOUDY    45  24  44 NW17G28   30.01R
$$

ILZ028>032-037-038-041>044-048-051>054-059>061-212000-
CENTRAL ILLINOIS

CITY           SKY/WX    TMP DP  RH WIND       PRES   REMARKS
PONTIAC        CLOUDY    39  25  56 NW21G29   29.93R WCI  29
BLOOMINGTON    CLOUDY    43  27  53 NW17      29.95R
DECATUR        PTSUNNY   50  33  52 NW13      29.93R
PEORIA         CLOUDY    40  19  43 NW15G31   29.96R
LACON*         CLOUDY    37  21  51 NW20      29.95R WCI  27
LINCOLN*       CLOUDY    47  30  51 NW9G17    29.96R
SPRINGFIELD    CLOUDY    48  26  42 NW16      29.97R
TAYLORVILLE    CLOUDY    51  33  48 NW10      29.93F
$$

ILZ033-039-045-046-055>057-062-063-212000-
EAST-CENTRAL ILLINOIS

CITY           SKY/WX    TMP DP  RH WIND       PRES   REMARKS
CHAMPAIGN      CLOUDY    51  34  52 NW16      29.92R
DANVILLE*      CLOUDY    49  34  56 W12       29.87R
RANTOUL*       CLOUDY    47  29  49 NW20G28   29.92R
MATTOON        CLOUDY    52  37  56 MISG      29.92R
PARIS*         MOSUNNY   51  38  60 W13       29.92R
$$

ILZ079-100>102-212000-
SOUTHWEST ILLINOIS

CITY           SKY/WX    TMP DP  RH WIND       PRES   REMARKS
ALTON          CLOUDY    54  34  47 NW12      29.96R
BELLEVILLE     MOSUNNY   58  34  41 W13       29.95R
CAHOKIA*       CLOUDY    57  32  38 W13       29.96R
SPARTA*        MOSUNNY   56  35  44 W7        29.96F
$$

ILZ064>066-069>071-074>076-080>082-084>086-088>090-092>094-212000-
SOUTH-CENTRAL ILLINOIS

CITY           SKY/WX    TMP DP  RH WIND       PRES   REMARKS
CARBONDALE     SUNNY     55  35  47 W12       29.97R
CAIRO*         MOSUNNY   55  38  51 S10       29.99S
EFFINGHAM*     MOSUNNY   53  36  53 W10G17    29.96R
MARION         MOSUNNY   59  34  38 SW9       29.97S
MT. VERNON     PTSUNNY   56  37  49 SW12      29.95S
CENTRALIA*     CLOUDY    54  37  53 W10       29.95R
SALEM*         CLOUDY    55  35  47 W9        29.94S
METROPOLIS*    MOSUNNY   58  35  42 SW12      29.98F
$$

ILZ067-068-072-073-078-083-087-091-212000-
SOUTHEAST ILLINOIS

CITY           SKY/WX    TMP DP  RH WIND       PRES   REMARKS
LAWRENCEVILLE  PTSUNNY   56  36  47 SW13      29.94S
FLORA*         PTSUNNY   56  36  46 W15       29.94S
FAIRFIELD*     PTSUNNY   55  35  47 SW5       29.95R
HARRISBURG*    MOSUNNY   57  36  45 SW10      29.96S
ROBINSON*      PTSUNNY   53  35  49 W16       29.94R
CARMI*         CLOUDY    56  35  45 SW14      29.95S
$$

ABBREVIATIONS USED IN REMARKS
   TC - TEMPERATURE IN CELSIUS
  WCI - WIND CHILL INDEX
   HX - HEAT INDEX
  VSB - VISIBILITY
$$





USA.gov is the U.S. government's official web portal to all federal, state and local government web resources and services.